Location: Cactus School
(34.5700°N, 118.0931°W)
Time: 08:47:03
(UTC-07:00)

S-56A Canister/Altair - Pass Details

Date: 18 April 2024
Orbit: 638 x 2488 km, 38.9° (Epoch: 29 May)

Event Time Altitude Azimuth Distance (km) Brightness Sun altitude
Rises 18:47:46 0° 261° (W) 3,257 12.4 7.1°
Reaches altitude 10° 18:49:53 10° 263° (W) 2,469 12.0 6.7°
Maximum altitude 18:55:41 72° 348° (NNW) 1,133 8.6 5.5°
Drops below altitude 10° 19:04:32 10° 73° (ENE) 3,674 10.5 3.7°
Sets 19:08:20 0° 75° (ENE) 4,967 11.1 3.0°
